Palmdale, CA

10:40 PM PST on January 23, 2018 (GMT -0800)
Palmdale Af Plant 42

Weather History for KPMD - March, 2013

Change the Weather History Date:

Saturday, March 30, 2013

  Actual Average Record
Temperature  
Mean Temperature 66 °F 54 °F  
Max Temperature 78 °F 69 °F 88 °F (1934)
Min Temperature 54 °F 40 °F 24 °F (1938)
Degree Days  
Heating Degree Days 0 11  
Month to date heating degree days 198 365  
Since 1 July heating degree days 2402 2610  
Cooling Degree Days 1 0  
Month to date cooling degree days 7 0  
Year to date cooling degree days 7 0  
Growing Degree Days 16 (Base 50)    
Moisture  
Dew Point 32 °F    
Average Humidity 33    
Maximum Humidity 50    
Minimum Humidity 15    
Precipitation  
Precipitation 0.00 in 0.02 in 1.12 in (1946)
Month to date precipitation 0.25 1.20  
Year to date precipitation 0.71 4.49  
Since 1 July precipitation 1.00  
Snow  
Snow 0.00 in - 0.00 in (1974)
Month to date snowfall 0.0  
Since 1 July snowfall 0.0  
Snow Depth 0.00 in    
Sea Level Pressure  
Sea Level Pressure 30.01 in    
Wind  
Wind Speed 13 mph (WSW)    
Max Wind Speed 30 mph    
Max Gust Speed 35 mph    
Visibility 10 miles    
Events      
T = Trace of Precipitation, MM = Missing Value Source: NWS Daily Summary

Daily Weather History Graph

Daily Weather History Graph

Search for Another Location

Airport or City:

Trip Planner

Search our weather history database for the weather conditions in past years. The results will help you decide how hot, cold, wet, or windy it might be!

Date:

Astronomy

Mar. 30, 2013 Rise Set
Actual Time 6:41 AM PDT 7:12 PM PDT
Civil Twilight 6:16 AM PDT 7:37 PM PDT
Nautical Twilight 5:46 AM PDT 8:07 PM PDT
Astronomical Twilight 5:16 AM PDT 8:37 PM PDT
Moon 11:13 PM PDT (3/30) 8:50 AM PDT (3/30)
Length of Visible Light 13h 21m
Length of Day
12h 30m
Waning Gibbous, 85% of the Moon is Illuminated
Mar 30
Waning Gibbous
Apr 2
Last Quarter
Apr 10
New
Apr 18
First Quarter
Apr 25
Full

Hourly Weather History & Observations

Time (PDT) Temp. Dew Point Humidity Pressure Visibility Wind Dir Wind Speed Gust Speed Precip Events Conditions
12:53 AM 63.0 °F 35.1 °F 35% 30.04 in 10.0 mi West 5.8 mph - N/A   Clear
1:53 AM 62.1 °F 36.0 °F 38% 30.04 in 10.0 mi West 10.4 mph - N/A   Clear
2:53 AM 61.0 °F 36.0 °F 39% 30.03 in 10.0 mi Calm Calm - N/A   Clear
3:53 AM 57.9 °F 35.1 °F 42% 30.02 in 10.0 mi Calm Calm - N/A   Clear
4:53 AM 57.0 °F 36.0 °F 45% 30.02 in 10.0 mi Calm Calm - N/A   Clear
5:53 AM 55.0 °F 35.1 °F 47% 30.02 in 10.0 mi WSW 4.6 mph - N/A   Clear
6:53 AM 54.0 °F 35.1 °F 49% 30.04 in 10.0 mi SSW 6.9 mph - N/A   Clear
7:53 AM 59.0 °F 37.9 °F 46% 30.05 in 10.0 mi Calm Calm - N/A   Clear
8:53 AM 64.0 °F 35.1 °F 34% 30.05 in 10.0 mi WNW 3.5 mph - N/A   Clear
9:53 AM 70.0 °F 27.0 °F 20% 30.04 in 10.0 mi WSW 6.9 mph 18.4 mph N/A   Clear
10:53 AM 73.0 °F 30.0 °F 20% 30.04 in 10.0 mi SW 16.1 mph - N/A   Clear
11:53 AM 75.9 °F 25.0 °F 15% 30.03 in 10.0 mi SW 18.4 mph 26.5 mph N/A   Clear
12:53 PM 77.0 °F 28.0 °F 17% 30.02 in 10.0 mi SW 20.7 mph - N/A   Clear
1:53 PM 77.0 °F 28.9 °F 17% 30.00 in 10.0 mi SW 20.7 mph 28.8 mph N/A   Clear
2:53 PM 78.1 °F 28.9 °F 17% 29.98 in 10.0 mi SW 17.3 mph 28.8 mph N/A   Clear
3:53 PM 77.0 °F 28.0 °F 17% 29.96 in 10.0 mi SW 21.9 mph 32.2 mph N/A   Clear
4:53 PM 75.0 °F 32.0 °F 21% 29.95 in 10.0 mi SW 23.0 mph 31.1 mph N/A   Clear
5:53 PM 72.0 °F 32.0 °F 23% 29.95 in 10.0 mi SW 25.3 mph 33.4 mph N/A   Clear
6:53 PM 68.0 °F 32.0 °F 26% 29.96 in 10.0 mi SW 24.2 mph 29.9 mph N/A   Clear
7:53 PM 64.9 °F 36.0 °F 34% 29.97 in 10.0 mi SW 25.3 mph 32.2 mph N/A   Clear
8:53 PM 63.0 °F 34.0 °F 34% 30.00 in 10.0 mi NW 10.4 mph 18.4 mph N/A   Clear
9:53 PM 62.1 °F 30.0 °F 30% 30.01 in 10.0 mi WSW 16.1 mph 20.7 mph N/A   Clear
10:53 PM 61.0 °F 30.0 °F 31% 30.01 in 10.0 mi West 8.1 mph - N/A   Clear
11:53 PM 59.0 °F 34.0 °F 39% 30.01 in 10.0 mi WNW 9.2 mph 18.4 mph N/A   Clear